FW5863 Weather Reports


time (UTC)temp
F
wind
direction
speed
knots
gust
knots
rain 1hr
in
rain 24hr
in
rain mn
in
humidity
%
barometer
mb
20260505171502 79 216 11.3 28.7 0.00 0.04 0.04 41 1009.1
20260505171001 78 236 9.6 15.6 0.00 0.04 0.04 47 1009.0
20260505170501 78 246 9.6 18.2 0.00 0.04 0.04 44 1009.1
20260505170006 77 233 9.6 16.5 0.00 0.04 0.04 47 1009.1
20260505165501 77 259 8.7 15.6 0.00 0.04 0.04 47 1009.2
20260505165001 78 234 9.6 17.4 0.00 0.04 0.04 49 1009.4
20260505164502 78 260 8.7 17.4 0.00 0.04 0.04 48 1009.4
20260505164001 78 250 7.8 16.5 0.00 0.04 0.04 47 1009.5
20260505163501 77 223 7.8 15.6 0.00 0.04 0.04 52 1009.6
20260505163002 77 214 8.7 15.6 0.00 0.04 0.04 50 1009.6
20260505162501 76 217 8.7 16.5 0.00 0.04 0.04 52 1009.7
20260505162001 76 257 9.6 16.5 0.00 0.04 0.04 51 1009.8
20260505161001 76 279 8.7 17.4 0.00 0.04 0.04 51 1009.7
20260505160501 75 232 10.4 16.5 0.00 0.04 0.04 54 1009.8
20260505153003 74 218 7.0 13.9 0.00 0.04 0.04 55 1010.2
20260505152501 74 217 7.0 13.0 0.00 0.04 0.04 59 1010.1
20260505152001 74 256 6.1 13.9 0.00 0.04 0.04 57 1010.2
20260505151502 73 255 7.0 13.9 0.00 0.04 0.04 57 1010.2
20260505151001 73 250 7.0 12.2 0.00 0.04 0.04 57 1010.3
20260505150501 72 257 7.0 13.9 0.00 0.04 0.04 57 1010.4
20260505125001 63 50 4.3 10.4 0.00 0.04 0.04 74 1011.1
20260505124502 62 50 4.3 9.6 0.00 0.04 0.04 75 1011.0
20260505124001 62 50 5.2 8.7 0.00 0.04 0.04 75 1011.0
20260505123501 61 50 3.5 8.7 0.00 0.04 0.04 77 1010.9
20260505123002 60 222 0.9 7.0 0.00 0.04 0.04 81 1010.9
20260505122501 60 131 0.9 3.5 0.00 0.04 0.04 86 1010.8
20260505122001 59 130 0.0 3.5 0.00 0.04 0.04 87 1010.9
20260505121502 58 50 0.0 1.7 0.00 0.04 0.04 88 1010.8
20260505121001 58 50 0.0 1.7 0.00 0.04 0.04 90 1010.7
20260505120501 57 50 0.0 1.7 0.00 0.04 0.04 91 1010.8
20260505115001 55 50 0.9 2.6 0.00 0.04 0.04 93 1010.9
20260505114502 55 50 0.0 2.6 0.00 0.04 0.04 95 1010.9
20260505113501 54 50 0.0 0.0 0.00 0.04 0.04 95 1010.7
20260505113002 53 50 0.0 0.0 0.00 0.04 0.04 96 1010.6
20260505112501 52 50 0.0 0.0 0.00 0.04 0.04 96 1010.6
20260505112001 52 50 0.0 0.0 0.00 0.04 0.04 95 1010.7
20260505111502 51 50 0.0 0.0 0.00 0.04 0.04 95 1010.5
20260505111001 51 50 0.0 0.0 0.00 0.04 0.04 95 1010.5
20260505110501 51 50 0.0 0.0 0.00 0.04 0.04 95 1010.4
20260505102001 49 273 0.0 0.9 0.00 0.04 0.04 92 1010.3
20260505101502 49 273 0.0 0.0 0.00 0.04 0.04 92 1010.3
20260505101001 49 273 0.0 0.0 0.00 0.04 0.04 92 1010.3
20260505100501 50 273 0.0 0.0 0.00 0.04 0.04 92 1010.2
20260505095501 50 273 0.9 1.7 0.00 0.04 0.04 92 1010.1
20260505095001 50 273 0.9 1.7 0.00 0.04 0.04 92 1010.2
20260505094001 51 288 0.0 0.9 0.00 0.04 0.04 91 1010.1
20260505092501 51 288 0.0 0.9 0.00 0.04 0.04 91 1009.9
20260505092001 51 288 0.9 2.6 0.00 0.04 0.04 91 1009.9
20260505091502 51 288 0.9 2.6 0.01 0.04 0.04 91 1010.0
20260505091001 51 288 0.9 2.6 0.01 0.04 0.04 90 1009.9
20260505090004 51 334 0.0 1.7 0.04 0.04 0.04 90 1010.0
20260505085503 51 334 0.9 3.5 0.04 0.04 0.04 89 1010.2
20260505085000 51 334 2.6 5.2 0.04 0.04 0.04 90 1010.2
20260505083501 52 336 0.9 3.5 0.04 0.04 0.04 88 1010.2
20260505083002 52 336 0.9 3.5 0.04 0.04 0.04 87 1010.3
20260505082501 53 19 0.0 0.0 0.04 0.04 0.04 86 1010.4
20260505081001 53 21 1.7 3.5 0.03 0.03 0.03 81 1010.0
20260505080501 53 222 1.7 3.5 0.00 0.00 0.00 80 1010.3
20260505080002 52 251 2.6 4.3 0.00 0.00 0.00 79 1010.0
20260505075501 52 292 2.6 4.3 0.00 0.00 0.00 79 1010.1
20260505075001 52 266 3.5 7.8 0.00 0.00 0.00 79 1009.9
20260505074502 52 4 1.7 7.8 0.00 0.00 0.00 79 1009.6
20260505074001 52 333 0.0 0.0 0.00 0.00 0.00 78 1009.5
20260505073501 52 205 0.0 0.0 0.00 0.00 0.00 78 1009.5
20260505073001 52 206 0.0 0.0 0.00 0.00 0.00 78 1009.6
20260505071502 52 261 0.0 0.0 0.00 0.00 0.00 77 1009.7
20260505071001 52 261 0.0 0.0 0.00 0.00 0.00 77 1009.8
20260505070501 52 261 0.0 0.0 0.00 0.00 0.00 76 1009.9
20260505070002 52 261 0.0 0.0 0.00 0.00 0.00 76 1009.7
20260505065501 53 259 0.0 0.0 0.00 0.00 0.00 74 1009.8
20260505065001 53 259 0.0 0.0 0.00 0.00 0.00 73 1009.8
20260505064502 53 259 0.0 0.0 0.00 0.00 0.00 72 1009.8
20260505064001 53 259 0.0 0.0 0.00 0.00 0.00 73 1009.8
20260505063501 53 259 0.0 0.0 0.00 0.00 0.00 73 1009.7
20260505063002 53 259 0.0 0.0 0.00 0.00 0.00 72 1009.8
20260505062501 53 259 0.0 0.0 0.00 0.00 0.00 73 1009.8
20260505062001 53 259 0.0 0.0 0.00 0.00 0.00 74 1009.9
20260505061502 53 259 0.0 1.7 0.00 0.00 0.00 73 1009.9
20260505061002 54 259 0.9 1.7 0.00 0.00 0.00 72 1009.9
20260505060501 54 259 1.7 2.6 0.00 0.00 0.00 71 1009.9
20260505060001 54 259 1.7 2.6 0.00 0.00 0.00 71 1009.9
20260505055501 54 259 1.7 2.6 0.00 0.00 0.00 70 1009.8
20260505055001 55 258 0.9 2.6 0.00 0.00 0.00 68 1009.8
20260505054001 57 50 0.0 0.0 0.00 0.00 0.00 65 1009.9
20260505053501 58 50 0.0 0.0 0.00 0.00 0.00 63 1009.8
20260505053002 58 50 0.9 1.7 0.00 0.00 0.00 62 1009.9
20260505052501 59 50 0.9 1.7 0.00 0.00 0.00 62 1009.8
20260505052001 59 50 0.9 4.3 0.00 0.00 0.00 61 1009.9
20260505051502 59 50 2.6 4.3 0.00 0.00 0.00 61 1009.8
20260505051001 59 50 2.6 4.3 0.00 0.00 0.00 61 1009.8
20260505050501 59 50 2.6 4.3 0.00 0.00 0.00 61 1009.8
20260505041501 60 50 1.7 4.3 0.00 0.00 0.00 59 1009.7
20260505035501 60 50 0.9 4.3 0.00 0.00 0.00 58 1009.6
20260505034502 60 50 0.9 4.3 0.00 0.00 0.00 57 1009.4
20260505034001 60 50 1.7 4.3 0.00 0.00 0.00 57 1009.4
20260505033500 60 50 2.6 5.2 0.00 0.00 0.00 57 1009.4
20260505033001 61 50 2.6 5.2 0.00 0.00 0.00 57 1009.5
20260505032500 60 50 1.7 5.2 0.00 0.00 0.00 57 1009.6
20260505031501 60 50 1.7 2.6 0.00 0.00 0.00 57 1009.6
20260505031001 61 50 1.7 2.6 0.00 0.00 0.00 56 1009.5
20260505030501 61 50 1.7 4.3 0.00 0.00 0.00 56 1009.5
20260505030001 61 50 1.7 4.3 0.00 0.00 0.00 55 1009.6
20260505025501 61 50 2.6 4.3 0.00 0.00 0.00 55 1009.7
20260505025001 61 50 2.6 5.2 0.00 0.00 0.00 55 1009.7
20260505024501 61 50 1.7 5.2 0.00 0.00 0.00 55 1009.7
20260505024001 61 50 1.7 3.5 0.00 0.00 0.00 55 1009.7
20260505023501 61 50 1.7 3.5 0.00 0.00 0.00 55 1009.7
20260505023001 61 50 2.6 3.5 0.00 0.00 0.00 55 1009.8
20260505022000 62 50 2.6 4.3 0.00 0.00 0.00 54 1009.9
20260505021505 62 50 2.6 4.3 0.00 0.00 0.00 54 1009.9
20260505020501 62 50 2.6 4.3 0.00 0.00 0.00 54 1009.9
20260505020008 62 50 2.6 4.3 0.00 0.00 0.00 53 1009.9
20260505015501 62 50 2.6 4.3 0.00 0.00 0.00 53 1010.0
20260505015001 62 50 2.6 4.3 0.00 0.00 0.00 53 1010.0
20260505014001 62 50 1.7 4.3 0.00 0.00 0.00 53 1009.9
20260505013501 62 50 1.7 4.3 0.00 0.00 0.00 53 1009.9
20260505013007 63 50 1.7 4.3 0.00 0.00 0.00 53 1009.9
20260505012501 63 50 2.6 4.3 0.00 0.00 0.00 53 1009.8
20260505012001 63 50 1.7 3.5 0.00 0.00 0.00 52 1009.7
20260505011509 63 50 1.7 3.5 0.00 0.00 0.00 52 1009.7
20260505011003 63 50 1.7 3.5 0.00 0.00 0.00 52 1009.6
20260505010502 63 50 1.7 3.5 0.00 0.00 0.00 51 1009.5
20260505010007 63 50 1.7 3.5 0.00 0.00 0.00 51 1009.6
20260505005500 64 50 2.6 4.3 0.00 0.00 0.00 51 1009.6
20260505005001 64 50 2.6 5.2 0.00 0.00 0.00 51 1009.5
20260505004504 64 50 2.6 7.0 0.00 0.00 0.00 50 1009.5
20260505004001 64 50 3.5 7.0 0.00 0.00 0.00 50 1009.4
20260505003501 64 50 3.5 7.0 0.00 0.00 0.00 50 1009.4
20260505002501 65 50 3.5 7.8 0.00 0.00 0.00 49 1009.3
20260505002000 65 50 5.2 10.4 0.00 0.00 0.00 49 1009.3
20260505001503 65 50 5.2 10.4 0.00 0.00 0.00 48 1009.2
20260505001001 65 50 4.3 8.7 0.00 0.00 0.00 48 1009.1
20260505000501 66 50 4.3 8.7 0.00 0.00 0.00 48 1009.2
20260505000007 66 50 4.3 10.4 0.00 0.00 0.00 47 1009.1
20260504235501 66 50 4.3 10.4 0.00 0.00 0.00 47 1009.1
20260504235001 67 50 5.2 13.0 0.00 0.00 0.00 46 1009.0
20260504234502 67 50 7.0 13.0 0.00 0.00 0.00 46 1008.9
20260504234001 67 50 7.0 13.9 0.00 0.00 0.00 46 1008.9
20260504233501 68 50 6.1 13.9 0.00 0.00 0.00 46 1008.9
20260504233003 68 50 6.1 14.8 0.00 0.00 0.00 45 1008.8
20260504232001 68 50 7.8 14.8 0.00 0.00 0.00 44 1008.7
20260504231501 69 50 7.0 14.8 0.00 0.00 0.00 45 1008.7
20260504231001 69 50 7.0 14.8 0.00 0.00 0.00 44 1008.6
20260504230501 69 50 7.8 16.5 0.00 0.00 0.00 45 1008.6
20260504230003 70 50 7.8 16.5 0.00 0.00 0.00 43 1008.5
20260504225501 70 50 5.2 12.2 0.00 0.00 0.00 42 1008.5
20260504224501 70 50 7.0 13.0 0.00 0.00 0.00 42 1008.3
20260504224000 70 184 7.0 13.0 0.00 0.00 0.00 42 1008.4
20260504223001 71 205 6.1 12.2 0.00 0.00 0.00 43 1008.3
20260504222501 71 250 6.1 13.9 0.00 0.00 0.00 42 1008.4
20260504222001 71 220 7.0 13.9 0.00 0.00 0.00 43 1008.5
20260504221501 71 226 7.0 10.4 0.00 0.00 0.00 42 1008.5
20260504221000 71 238 7.0 13.0 0.00 0.00 0.00 42 1008.6
20260504220501 71 257 7.8 13.0 0.00 0.00 0.00 41 1008.6
20260504220001 71 198 7.8 15.6 0.00 0.00 0.00 40 1008.6
20260504215000 71 244 7.8 15.6 0.00 0.00 0.00 41 1008.6
20260504214501 71 245 6.1 14.8 0.00 0.00 0.00 41 1008.7
20260504214001 71 184 7.0 13.9 0.00 0.00 0.00 42 1008.6
20260504213501 71 202 7.0 13.0 0.00 0.00 0.00 41 1008.6
20260504212500 71 230 7.8 13.9 0.00 0.00 0.00 43 1008.8
20260504212001 71 166 7.8 13.0 0.00 0.00 0.00 42 1008.7
20260504211501 71 202 8.7 13.9 0.00 0.00 0.00 41 1008.7
20260504210501 72 238 6.1 13.9 0.00 0.00 0.00 40 1008.7
20260504205500 71 50 8.7 13.9 0.00 0.00 0.00 42 1008.8
20260504205001 71 50 7.8 13.9 0.00 0.00 0.00 41 1008.9
20260504204000 71 50 9.6 15.6 0.00 0.00 0.00 43 1009.0
20260504203500 71 50 8.7 15.6 0.00 0.00 0.00 42 1009.1
20260504203001 71 50 7.8 15.6 0.00 0.00 0.00 44 1009.1
20260504202500 70 50 8.7 18.2 0.00 0.00 0.00 42 1009.1
20260504202000 70 50 9.6 18.2 0.00 0.00 0.00 41 1009.2
20260504201501 70 50 10.4 16.5 0.00 0.00 0.00 40 1009.3
20260504200502 71 50 9.6 15.6 0.00 0.00 0.00 41 1009.4
20260504200004 71 50 8.7 15.6 0.00 0.00 0.00 41 1009.4
20260504195501 70 50 8.7 14.8 0.00 0.00 0.00 43 1009.4
20260504195000 70 50 8.7 16.5 0.00 0.00 0.00 43 1009.4
20260504194507 70 50 10.4 19.1 0.00 0.00 0.00 42 1009.5
20260504194000 70 50 10.4 19.1 0.00 0.00 0.00 42 1009.6
20260504193501 70 50 9.6 16.5 0.00 0.00 0.00 43 1009.6
20260504193001 70 50 10.4 17.4 0.00 0.00 0.00 44 1009.6
20260504192501 70 50 7.8 17.4 0.00 0.00 0.00 42 1009.7
20260504192000 69 50 8.7 22.6 0.00 0.00 0.00 42 1009.7
20260504191501 70 50 9.6 22.6 0.00 0.00 0.00 42 1009.7
20260504191000 70 50 8.7 13.9 0.00 0.00 0.00 43 1009.7
20260504190003 69 50 10.4 18.2 0.00 0.00 0.00 44 1009.8
20260504185501 69 50 11.3 20.9 0.00 0.00 0.00 45 1009.9
20260504185001 70 50 9.6 20.9 0.00 0.00 0.00 42 1010.1
20260504184501 69 50 8.7 16.5 0.00 0.00 0.00 43 1010.0
20260504184000 69 50 9.6 15.6 0.00 0.00 0.00 44 1010.1
20260504183500 69 50 10.4 23.5 0.00 0.00 0.00 44 1010.2
20260504183001 69 205 8.7 23.5 0.00 0.00 0.00 43 1010.3
20260504182500 69 50 7.0 13.9 0.00 0.00 0.00 44 1010.4
20260504182001 69 50 7.8 13.9 0.00 0.00 0.00 44 1010.3
20260504181502 69 50 9.6 15.6 0.00 0.00 0.00 43 1010.4
20260504181001 69 50 9.6 15.6 0.00 0.00 0.00 44 1010.5
20260504180500 69 50 8.7 16.5 0.00 0.00 0.00 44 1010.5
20260504180002 68 50 7.8 16.5 0.00 0.00 0.00 45 1010.5
20260504175501 68 50 8.7 18.2 0.00 0.00 0.00 43 1010.6
20260504174502 68 50 6.1 13.0 0.00 0.00 0.00 45 1010.7
20260504174001 67 50 8.7 13.9 0.00 0.00 0.00 47 1010.9
20260504173500 67 50 9.6 16.5 0.00 0.00 0.00 46 1011.0
20260504172500 67 50 10.4 16.5 0.00 0.00 0.00 45 1011.2
20260504172001 66 50 10.4 18.2 0.00 0.00 0.00 47 1011.2